Regional Weather Roundup
Issued by NWS Green Bay, WI

Home | Current Version | Previous Version | Text Only | Print | Product List | Glossary On
Versions: 1 2 3 4 5 6 7 8 9 10 11 12 13 14 15 16 17 18 19 20 21 22 23 24 25 26 27 28 29 30 31 32 33 34 35 36 37 38 39 40 41 42 43 44 45 46 47 48 49 50
000
ASUS43 KGRB 291559
RWRGRB

NORTH-CENTRAL AND NORTHEAST WISCONSIN REGIONAL WEATHER ROUNDUP
NATIONAL WEATHER SERVICE GREEN BAY WI
1100 AM CDT TUE JUL 29 2014

WIZ005-009-010>012-018-019-291700-
NORTH CENTRAL WISCONSIN

CITY           SKY/WX    TMP DP  RH WIND       PRES   REMARKS
IRONWOOD       NOT AVBL
MANITOWISH WTR NOT AVBL
ARBOR VITAE    NOT AVBL
EAGLE RIVER    NOT AVBL
LAND O LAKES   NOT AVBL
RHINELANDER    SUNNY     67  55  65 NW5       30.06F
PHILLIPS       NOT AVBL
ANTIGO         NOT AVBL
TOMAHAWK       NOT AVBL
MERRILL        NOT AVBL
$$

WIZ013-073-291700-
NORTHEAST WISCONSIN

CITY           SKY/WX    TMP DP  RH WIND       PRES   REMARKS
IRON MOUNTAIN  MOSUNNY   67  54  63 NW9       29.99F
MARINETTE      MOSUNNY   66  55  68 N7        29.99R
$$

WIZ017-030-035>037-045-291700-
CENTRAL WISCONSIN

CITY           SKY/WX    TMP DP  RH WIND       PRES   REMARKS
MEDFORD        NOT AVBL
WAUSAU         MOSUNNY   70  55  59 NW9       30.05S
MOSINEE        SUNNY     66  57  72 NW9       30.07S
MARSHFIELD     MOSUNNY   73  54  51 NW13      30.07S
WISC RAPIDS    SUNNY     73  53  49 W8        30.07S
STEVENS POINT  NOT AVBL
WAUPACA        NOT AVBL
SHAWANO        NOT AVBL
CLINTONVILLE   NOT AVBL
$$

WIZ038-039-048-051-291700-
FOX VALLEY

CITY           SKY/WX    TMP DP  RH WIND       PRES   REMARKS
NWS GREEN BAY  PTSUNNY   72  57  59 VRB6      30.01F
APPLETON       PTSUNNY   66  52  59 W9        30.04S
OSHKOSH        CLOUDY    69  55  60 NW8       30.03F
FOND DU LAC    SUNNY     71  54  54 NW10      30.04S
$$

WIZ022-050-052-291700-
EAST CENTRAL WISCONSIN

CITY           SKY/WX    TMP DP  RH WIND       PRES   REMARKS
STURGEON BAY   CLOUDY    64  54  68 NW7       30.01S
MANITOWOC      NOT AVBL
SHEBOYGAN      SUNNY     69  57  65 W6        30.02S
$$

LMZ563-521-522-541>543-291700-
LAKESHORE

STATION/POSITION TIME  TEMP    WIND        PRES    VSBY  WAVE
                       AIR SEA DIR/SP/G                  HT/PER
                 (UTC) (F)     (DEG/KT/KT) (MB)    (MI)  (FT/S)
SHEBOYGAN LKSHOR 1500   66      10/  5/  5 1016.7S
KEWAUNEE LKSHORE 1500   68     310/  7/ 10 1016.5F
NORTHPORT PIER   1500   61     320/  9/ 12 1015.2F
N MID LAKE BUOY  1500   56 51  280/  6/  6 1014.7S         1
S GREEN BAY BUOY 1500   65 66  270/  6     1017.0S
STURGEON BAY CG  1500   66 57  330/  8     1015.8      6   1
CHAMBERS ISLAND  1500   65     290/  4/  6 1015.6F
MENOMINEE LKSHOR 1500   62     350/  4/  6 1016.2S
$$


USA.gov is the U.S. government's official web portal to all federal, state and local government web resources and services.